Tracking 29932 objects as of 3-Dec-2024
HD Live streaming from Space Station
objects crossing your sky now

GALAXY 25 (TELSTAR 5)

Track GALAXY 25 (TELSTAR 5) now!
GALAXY 25 (TELSTAR 5) is classified as:


NORAD ID: 24812
Int'l Code: 1997-026A
Perigee: 36,120.9 km
Apogee: 36,133.7 km
Inclination: 6.0 °
Period: 1,453.2 minutes
Semi major axis: 42498 km
RCS: 43.2964 m2 (large)
Launch date: May 24, 1997
Source: United States (US)
Launch site: TYURATAM MISSILE AND SPACE COMPLEX (TTMTR)

24 C-band, 28 Ku-band; U.S., southern Canada, Mexico, Caribbean.
Your satellite tracking list
Your tracking list is empty




NASA's NSSDC Master Catalog

Two Line Element Set (TLE):
1 24812U 97026A   24337.66649413 -.00000267  00000-0  00000-0 0  9995
2 24812   5.9705  74.2423 0001516  43.0774 338.9561  0.99093590100667
Source of the keplerian elements: AFSPC